20050107,000018,261397,30.845358,-121.580548,4.8,16.456,33.190,42.301,1617.40,0.0,0.557,16.210,16.181, NaN,24.252,   NaN,14.87,1015.47,69.69,15.19,3.9,5.7,4.1,4.1,209.6,211.2,4.2,4.2,NaN, NaN,22.2,96.7,128.0,1105056019,1105056018,1,0.4,000018,000018,194.3,30.845485,-121.580501,-0.02,NaN,NaN,16.460, NaN,NaN,NaN, NaN, NaN
20050107,000048,261427,30.845341,-121.580456,4.8,16.451,33.195,42.301,1654.83,0.0,0.557,16.217,16.185, NaN,24.256,   NaN,14.95,1015.48,69.90,15.28,13.4,15.4,4.2,4.4,213.4,215.0,4.3,4.6,NaN, NaN,22.1,105.5,114.9,1105056049,1105056049,1,1.0,000048,000049,190.2,30.845478,-121.580426,-0.09,NaN,NaN,16.455, NaN,NaN,NaN, NaN, NaN
20050107,000118,261456,30.845295,-121.580381,4.7,16.454,33.191,42.300,1689.36,0.0,0.576,16.221,16.190, NaN,24.253,   NaN,14.97,1015.51,69.74,15.33,18.3,19.1,4.7,5.1,214.1,214.5,4.8,5.3,NaN, NaN,21.9,109.6,125.8,1105056078,1105056078,1,1.0,000078,000078,188.9,30.845423,-121.580353,-0.10,NaN,NaN,16.458, NaN,NaN,NaN, NaN, NaN
20050107,000148,261486,30.845205,-121.580303,4.8,16.450,33.194,42.299,1593.41,0.0,0.576,16.222,16.193, NaN,24.256,   NaN,14.98,1015.49,69.50,15.30,17.1,18.6,5.1,5.5,212.2,213.4,5.1,5.5,NaN, NaN,22.0,127.0,137.8,1105056109,1105056109,1,1.1,000108,000109,192.9,30.845331,-121.580255,-0.09,NaN,NaN,16.454, NaN,NaN,NaN, NaN, NaN
20050107,000217,261516,30.845090,-121.580223,4.8,16.448,33.195,42.299,1525.77,0.0,0.576,16.221,16.191, NaN,24.258,   NaN,14.95,1015.51,69.21,15.28,11.9,13.9,5.1,5.5,211.4,213.1,5.0,5.4,NaN, NaN,22.4,142.0,135.6,1105056138,1105056138,1,1.3,000137,000138,201.2,30.845211,-121.580158,-0.16,NaN,NaN,16.452, NaN,NaN,NaN, NaN, NaN
20050107,000248,261547,30.844951,-121.580173,4.8,16.449,33.193,42.297,1592.34,0.0,0.576,16.219,16.189, NaN,24.256,   NaN,14.92,1015.53,68.68,15.21,0.3,3.1,5.0,5.1,207.1,209.9,4.7,4.9,NaN, NaN,21.2,158.8,163.2,1105056169,1105056169,1,1.2,000169,000169,208.2,30.845075,-121.580108,-0.06,NaN,NaN,16.453, NaN,NaN,NaN, NaN, NaN
20050107,000318,261577,30.844825,-121.580150,4.8,16.451,33.191,42.297,1542.94,0.0,0.557,16.218,16.185, NaN,24.254,   NaN,14.92,1015.49,68.75,15.23,352.8,358.0,5.0,5.0,204.6,210.0,4.7,4.7,NaN, NaN,21.9,146.9,180.4,1105056199,1105056198,1,0.9,000198,000198,207.6,30.844950,-121.580083,-0.08,NaN,NaN,16.455, NaN,NaN,NaN, NaN, NaN
20050107,000349,261607,30.844685,-121.580145,4.8,16.452,33.189,42.296,1499.48,0.0,0.576,16.215,16.182, NaN,24.252,   NaN,14.88,1015.47,68.36,15.19,352.7,356.8,4.8,4.7,204.3,208.9,4.4,4.4,NaN, NaN,20.8,159.0,208.4,1105056229,1105056229,1,0.8,000228,000229,202.1,30.844815,-121.580090,-0.01,NaN,NaN,16.456, NaN,NaN,NaN, NaN, NaN
20050107,000418,261636,30.844531,-121.580120,4.8,16.458,33.183,42.295,1398.93,0.0,0.576,16.213,16.182, NaN,24.246,   NaN,14.88,1015.49,68.38,15.19,356.8,359.3,4.4,4.5,203.4,206.3,4.0,4.0,NaN, NaN,22.6,241.0,179.7,1105056259,1105056258,1,1.1,000258,000258,196.7,30.844668,-121.580081,-0.05,NaN,NaN,16.462, NaN,NaN,NaN, NaN, NaN
20050107,000448,261666,30.844358,-121.580090,4.9,16.454,33.186,42.293,1391.44,0.0,0.557,16.210,16.181, NaN,24.249,   NaN,14.91,1015.43,68.73,15.25,358.7,3.0,4.5,4.6,200.4,204.8,4.0,4.1,NaN, NaN,21.2,217.5,188.3,1105056289,1105056289,1,1.3,000288,000289,197.4,30.844481,-121.580051,0.00,NaN,NaN,16.458, NaN,NaN,NaN, NaN, NaN
20050107,000518,261696,30.844165,-121.580060,4.8,16.454,33.188,42.296,1258.48,0.0,0.576,16.207,16.181, NaN,24.251,   NaN,14.92,1015.43,69.13,15.29,358.0,1.2,4.8,4.9,199.7,202.8,4.2,4.3,NaN, NaN,21.8,222.8,176.7,1105056319,1105056319,1,1.5,000319,000319,200.6,30.844296,-121.580013,0.03,NaN,NaN,16.458, NaN,NaN,NaN, NaN, NaN
20050107,000547,261725,30.843985,-121.580050,4.8,16.454,33.189,42.297,1155.91,0.0,0.557,16.205,16.179, NaN,24.251,   NaN,14.93,1015.40,69.81,15.32,355.3,356.1,5.3,5.2,198.1,199.2,4.6,4.6,NaN, NaN,20.5,144.3,165.0,1105056348,1105056348,1,1.4,000348,000348,202.2,30.844116,-121.579995,0.00,NaN,NaN,16.458, NaN,NaN,NaN, NaN, NaN
20050107,000619,261757,30.843800,-121.580048,4.8,16.454,33.187,42.295,1119.94,0.0,0.576,16.204,16.177, NaN,24.250,   NaN,14.87,1015.40,69.86,15.27,350.6,352.2,5.2,4.8,194.9,197.0,4.5,4.2,NaN, NaN,20.7,214.2,198.0,1105056379,1105056379,1,1.3,000378,000379,202.4,30.843923,-121.579995,-0.05,NaN,NaN,16.458, NaN,NaN,NaN, NaN, NaN
20050107,000648,261786,30.843615,-121.580041,4.8,16.453,33.189,42.297,1315.20,0.0,0.576,16.202,16.175, NaN,24.252,   NaN,14.85,1015.37,69.72,15.19,348.9,350.9,4.7,4.3,192.6,195.1,4.0,3.6,NaN, NaN,22.6,244.0,207.7,1105056409,1105056409,1,1.3,000408,000409,199.9,30.843738,-121.579996,0.00,NaN,NaN,16.457, NaN,NaN,NaN, NaN, NaN
20050107,000718,261816,30.843421,-121.580028,4.8,16.457,33.185,42.296,1366.16,0.0,0.576,16.201,16.175, NaN,24.248,   NaN,14.85,1015.35,69.59,15.18,349.7,352.6,4.5,4.3,192.2,195.2,4.0,3.7,NaN, NaN,21.7,151.9,172.4,1105056439,1105056439,1,1.5,000438,000439,197.2,30.843551,-121.579991,0.04,NaN,NaN,16.461, NaN,NaN,NaN, NaN, NaN
20050107,000748,261846,30.843221,-121.580016,4.7,16.453,33.189,42.297,1320.06,0.0,0.576,16.201,16.174, NaN,24.252,   NaN,14.85,1015.29,69.44,15.15,354.3,356.5,5.0,4.9,195.0,197.5,4.4,4.2,NaN, NaN,21.1,150.3,174.8,1105056469,1105056469,1,1.5,000469,000469,197.2,30.843355,-121.579973,0.10,NaN,NaN,16.457, NaN,NaN,NaN, NaN, NaN
20050107,000818,261877,30.843058,-121.579983,4.7,16.461,33.183,42.297,1290.54,0.0,0.595,16.201,16.174, NaN,24.245,   NaN,14.89,1015.29,69.67,15.18,350.8,355.2,5.3,5.1,190.5,195.3,4.6,4.5,NaN, NaN,22.7,167.4,165.4,1105056499,1105056499,1,1.2,000498,000499,195.7,30.843186,-121.579945,0.09,NaN,NaN,16.465, NaN,NaN,NaN, NaN, NaN
20050107,000849,261907,30.842915,-121.579915,4.8,16.453,33.188,42.296,1249.74,0.0,0.576,16.201,16.174, NaN,24.251,   NaN,14.87,1015.30,69.58,15.20,350.3,352.2,4.9,4.7,189.8,191.7,4.4,4.2,NaN, NaN,25.7,231.3,134.4,1105056529,1105056529,1,1.5,000529,000529,194.4,30.843048,-121.579883,-0.01,NaN,NaN,16.457, NaN,NaN,NaN, NaN, NaN
20050107,000918,261937,30.842805,-121.579878,4.9,16.450,33.192,42.297,1328.27,0.0,0.576,16.201,16.174, NaN,24.254,   NaN,14.90,1015.27,69.73,15.24,353.9,353.5,4.7,4.6,192.3,191.7,4.3,4.3,NaN, NaN,23.8,128.7,134.8,1105056559,1105056559,1,1.3,000558,000559,194.4,30.842930,-121.579831,0.05,NaN,NaN,16.454, NaN,NaN,NaN, NaN, NaN
20050107,000949,261968,30.842700,-121.579816,4.8,16.453,33.188,42.296,1413.72,0.0,0.576,16.201,16.173, NaN,24.251,   NaN,14.88,1015.26,69.48,15.21,352.1,355.7,4.8,4.9,190.3,193.8,4.5,4.7,NaN, NaN,21.9,120.3,127.1,1105056589,1105056589,1,1.3,000589,000589,195.7,30.842830,-121.579775,0.06,NaN,NaN,16.457, NaN,NaN,NaN, NaN, NaN
20050107,001018,261996,30.842613,-121.579760,4.7,16.451,33.191,42.297,1490.63,0.0,0.576,16.201,16.174, NaN,24.254,   NaN,14.85,1015.23,69.01,15.17,350.1,353.7,4.7,4.6,189.7,193.6,4.4,4.3,NaN, NaN,24.6,134.6,208.5,1105056619,1105056619,1,0.2,000618,000619,197.6,30.842740,-121.579713,0.03,NaN,NaN,16.455, NaN,NaN,NaN, NaN, NaN
20050107,001049,262027,30.842536,-121.579695,4.7,16.452,33.192,42.299,1481.27,0.0,0.576,16.201,16.174, NaN,24.254,   NaN,14.85,1015.26,68.85,15.15,346.6,348.6,4.4,4.2,188.8,191.2,4.1,3.9,NaN, NaN,24.5,112.3,151.7,1105056649,1105056649,1,0.4,000649,000649,202.2,30.842660,-121.579638,-0.13,NaN,NaN,16.456, NaN,NaN,NaN, NaN, NaN
20050107,001118,262057,30.842476,-121.579645,4.8,16.452,33.190,42.297,1569.51,0.0,0.576,16.201,16.174, NaN,24.253,   NaN,14.87,1015.23,68.85,15.17,342.6,342.8,4.2,4.0,188.3,188.6,3.9,3.8,NaN, NaN,24.2,277.4,173.6,1105056679,1105056679,1,0.4,000678,000679,205.9,30.842585,-121.579571,0.13,NaN,NaN,16.456, NaN,NaN,NaN, NaN, NaN
20050107,001149,262087,30.842406,-121.579575,4.8,16.449,33.192,42.296,1529.57,0.0,0.576,16.201,16.174, NaN,24.255,   NaN,14.90,1015.25,69.02,15.23,335.7,337.8,4.2,4.1,186.1,188.1,4.0,3.9,NaN, NaN,23.5,130.5,150.8,1105056709,1105056709,1,0.7,000709,000709,211.2,30.842516,-121.579501,0.00,NaN,NaN,16.453, NaN,NaN,NaN, NaN, NaN
20050107,001218,262116,30.842373,-121.579550,4.8,16.448,33.193,42.296,1422.81,0.0,0.595,16.202,16.174, NaN,24.256,   NaN,14.86,1015.25,69.15,15.22,326.0,329.7,4.0,4.2,180.7,183.8,3.9,4.0,NaN, NaN,22.4,297.3,244.4,1105056739,1105056739,1,0.3,000738,000739,214.6,30.842471,-121.579458,0.25,NaN,NaN,16.452, NaN,NaN,NaN, NaN, NaN
20050107,001248,262146,30.842330,-121.579493,4.8,16.453,33.188,42.296,1356.78,0.0,0.576,16.201,16.174, NaN,24.251,   NaN,14.83,1015.27,69.61,15.22,319.8,320.8,3.8,4.1,178.1,178.5,3.6,3.9,NaN, NaN,21.8,124.8,118.0,1105056769,1105056769,1,1.4,000769,000769,217.2,30.842431,-121.579398,0.01,NaN,NaN,16.457, NaN,NaN,NaN, NaN, NaN
20050107,001318,262176,30.842330,-121.579485,4.7,16.446,33.190,42.291,1518.68,0.0,0.595,16.201,16.174, NaN,24.254,   NaN,14.85,1015.27,70.12,15.31,316.6,316.2,3.9,4.1,177.1,176.2,3.7,3.9,NaN, NaN,21.8,311.6,318.6,1105056799,1105056799,1,0.3,000798,000799,218.1,30.842418,-121.579378,1.17,NaN,NaN,16.450, NaN,NaN,NaN, NaN, NaN
20050107,001348,262206,30.842316,-121.579436,4.8,16.445,33.197,42.298,1618.52,0.0,0.576,16.201,16.174, NaN,24.259,   NaN,14.80,1015.30,69.73,15.30,312.5,313.1,4.2,4.3,173.1,173.1,4.1,4.2,NaN, NaN,23.0,115.9,356.9,1105056829,1105056829,1,0.2,000828,000829,217.9,30.842406,-121.579336,0.14,NaN,NaN,16.449, NaN,NaN,NaN, NaN, NaN
20050107,001418,262237,30.842301,-121.579408,4.8,16.446,33.195,42.297,1635.15,0.0,0.576,16.201,16.173, NaN,24.258,   NaN,14.80,1015.33,69.63,15.26,312.2,311.8,4.2,4.3,172.4,171.9,4.1,4.2,NaN, NaN,22.2,301.0,208.9,1105056859,1105056858,1,0.3,000858,000858,219.7,30.842386,-121.579305,0.23,NaN,NaN,16.450, NaN,NaN,NaN, NaN, NaN
20050107,001448,262267,30.842240,-121.579420,4.8,16.448,33.192,42.296,1635.57,0.0,0.595,16.200,16.172, NaN,24.255,   NaN,14.83,1015.35,69.85,15.29,316.3,315.9,4.1,4.3,178.6,178.3,4.0,4.2,NaN, NaN,21.8,300.2,244.7,1105056889,1105056889,1,0.7,000888,000889,230.6,30.842310,-121.579306,0.14,NaN,NaN,16.452, NaN,NaN,NaN, NaN, NaN
20050107,001518,262296,30.842173,-121.579480,4.8,16.447,33.193,42.295,1493.46,0.0,0.576,16.197,16.169, NaN,24.256,   NaN,14.84,1015.31,70.04,15.29,314.3,314.1,4.3,4.5,185.8,185.2,4.1,4.3,NaN, NaN,22.3,309.2,256.3,1105056919,1105056919,1,0.8,000918,000919,245.2,30.842206,-121.579350,0.17,NaN,NaN,16.451, NaN,NaN,NaN, NaN, NaN
20050107,001548,262326,30.842111,-121.579591,4.8,16.448,33.191,42.293,1339.08,0.0,0.595,16.195,16.166, NaN,24.255,   NaN,14.90,1015.30,70.47,15.33,303.5,301.6,4.4,4.9,187.2,185.5,4.2,4.7,NaN, NaN,18.1,209.0,257.1,1105056949,1105056949,1,0.7,000948,000949,259.9,30.842121,-121.579450,0.09,NaN,NaN,16.452, NaN,NaN,NaN, NaN, NaN
20050107,001618,262356,30.842098,-121.579755,4.8,16.447,33.193,42.295,1435.59,0.0,0.576,16.194,16.164, NaN,24.256,   NaN,14.92,1015.33,70.38,15.30,298.0,295.2,4.2,5.0,190.7,188.6,4.0,4.8,NaN, NaN,19.3,193.8,212.1,1105056979,1105056979,1,1.4,000979,000979,262.4,30.842093,-121.579600,0.18,NaN,NaN,16.451, NaN,NaN,NaN, NaN, NaN
20050107,001648,262387,30.842115,-121.579925,4.7,16.444,33.194,42.293,1444.08,0.0,0.595,16.192,16.162, NaN,24.258,   NaN,14.92,1015.29,70.03,15.27,298.0,294.0,3.7,4.5,190.9,188.9,3.5,4.4,NaN, NaN,19.2,297.6,277.8,1105057009,1105057009,1,1.2,001008,001009,260.9,30.842108,-121.579781,0.35,NaN,NaN,16.448, NaN,NaN,NaN, NaN, NaN
20050107,001719,262417,30.842101,-121.580126,4.8,16.445,33.193,42.293,1510.28,0.0,0.595,16.187,16.159, NaN,24.257,   NaN,15.00,1015.24,70.34,15.27,291.8,288.6,3.2,4.4,182.5,182.6,3.1,4.3,NaN, NaN,18.0,282.3,285.5,1105057039,1105057039,1,1.7,001039,001039,265.9,30.842090,-121.579985,0.17,NaN,NaN,16.449, NaN,NaN,NaN, NaN, NaN
20050107,001748,262447,30.842115,-121.580321,4.8,16.444,33.194,42.293,1366.11,0.0,0.595,16.187,16.157, NaN,24.258,   NaN,15.05,1015.25,70.38,15.33,291.1,281.2,3.1,4.6,183.6,179.4,3.0,4.6,NaN, NaN,18.9,297.0,278.4,1105057069,1105057069,1,1.4,001068,001069,272.1,30.842083,-121.580181,0.18,NaN,NaN,16.448, NaN,NaN,NaN, NaN, NaN
20050107,001818,262476,30.842143,-121.580495,4.8,16.447,33.193,42.295,986.40,0.0,0.595,16.187,16.158, NaN,24.256,   NaN,15.00,1015.24,70.13,15.21,302.9,275.9,2.4,4.5,180.5,180.0,2.3,4.6,NaN, NaN,19.9,253.4,260.5,1105057099,1105057099,1,0.7,001098,001099,274.2,30.842108,-121.580350,0.15,NaN,NaN,16.451, NaN,NaN,NaN, NaN, NaN
20050107,001848,262506,30.842193,-121.580636,4.8,16.445,33.193,42.292,1077.42,0.0,0.595,16.187,16.156, NaN,24.256,   NaN,14.97,1015.26,70.21,15.16,301.0,272.3,1.7,4.2,185.5,180.8,1.7,4.3,NaN, NaN,23.3,308.6,271.7,1105057129,1105057129,1,0.8,001128,001129,277.2,30.842151,-121.580500,0.23,NaN,NaN,16.449, NaN,NaN,NaN, NaN, NaN
20050107,001918,262536,30.842238,-121.580753,4.8,16.445,33.193,42.292,1163.49,0.0,0.595,16.186,16.154, NaN,24.256,   NaN,15.02,1015.23,70.36,15.19,315.2,268.1,0.8,3.8,155.8,179.3,1.0,4.0,NaN, NaN,17.7,242.4,278.3,1105057159,1105057159,1,0.7,001158,001159,276.6,30.842205,-121.580616,0.20,NaN,NaN,16.449, NaN,NaN,NaN, NaN, NaN
20050107,001948,262567,30.842286,-121.580838,4.8,16.444,33.193,42.292,1315.17,0.0,0.595,16.183,16.154, NaN,24.257,   NaN,15.05,1015.20,70.06,15.20,336.7,269.3,0.2,3.6,141.5,180.8,0.6,3.9,NaN, NaN,22.9,328.4,314.1,1105057189,1105057189,1,0.7,001188,001189,273.4,30.842266,-121.580708,0.35,NaN,NaN,16.448, NaN,NaN,NaN, NaN, NaN
20050107,002018,262597,30.842325,-121.580920,4.7,16.445,33.193,42.293,1445.01,0.0,0.595,16.184,16.155, NaN,24.257,   NaN,15.13,1015.21,70.02,15.24,271.2,270.7,0.4,3.6,151.5,180.9,0.7,3.9,NaN, NaN,23.3,342.7,294.9,1105057219,1105057219,1,0.5,001219,001219,270.6,30.842311,-121.580783,0.27,NaN,NaN,16.449, NaN,NaN,NaN, NaN, NaN
20050107,002048,262626,30.842363,-121.580981,4.8,16.442,33.194,42.291,1429.20,0.0,0.595,16.184,16.154, NaN,24.258,   NaN,15.25,1015.20,70.70,15.37,293.9,276.3,1.4,3.7,183.2,184.6,1.6,4.0,NaN, NaN,22.5,348.5,316.9,1105057249,1105057248,1,0.8,001248,001248,269.5,30.842351,-121.580848,0.29,NaN,NaN,16.446, NaN,NaN,NaN, NaN, NaN
20050107,002119,262658,30.842393,-121.581071,4.8,16.440,33.197,42.292,1255.58,0.0,0.595,16.183,16.153, NaN,24.261,   NaN,15.14,1015.20,70.23,15.33,292.5,282.0,2.7,4.1,198.1,190.3,2.8,4.3,NaN, NaN,22.5,196.4,246.8,1105057279,1105057279,1,0.8,001279,001279,276.2,30.842371,-121.580946,0.26,NaN,NaN,16.444, NaN,NaN,NaN, NaN, NaN
20050107,002148,262686,30.842455,-121.581183,4.7,16.443,33.192,42.290,1258.30,0.0,0.595,16.181,16.152, NaN,24.257,   NaN,15.09,1015.18,70.20,15.24,292.4,277.1,2.2,4.1,191.3,189.6,2.4,4.2,NaN, NaN,23.1,316.3,290.1,1105057309,1105057309,1,0.7,001308,001309,282.9,30.842415,-121.581066,0.32,NaN,NaN,16.447, NaN,NaN,NaN, NaN, NaN
20050107,002218,262717,30.842521,-121.581341,4.8,16.443,33.193,42.291,1354.10,0.0,0.595,16.181,16.150, NaN,24.257,   NaN,15.18,1015.19,70.76,15.32,300.8,268.7,1.1,3.8,161.9,184.8,1.4,4.1,NaN, NaN,22.3,224.7,243.7,1105057339,1105057339,1,1.4,001339,001339,284.9,30.842485,-121.581218,0.29,NaN,NaN,16.447, NaN,NaN,NaN, NaN, NaN
20050107,002249,262747,30.842633,-121.581490,4.7,16.447,33.189,42.290,1425.46,0.0,0.595,16.180,16.148, NaN,24.253,   NaN,15.27,1015.21,70.72,15.36,306.5,263.3,0.4,3.7,118.6,179.8,0.9,4.0,NaN, NaN,22.1,345.1,323.9,1105057369,1105057369,1,1.1,001368,001369,280.6,30.842591,-121.581365,0.40,NaN,NaN,16.451, NaN,NaN,NaN, NaN, NaN
20050107,002319,262777,30.842701,-121.581618,4.7,16.438,33.196,42.290,1434.70,0.0,0.595,16.180,16.148, NaN,24.260,   NaN,15.39,1015.21,70.80,15.40,325.8,261.6,0.3,3.3,117.8,175.8,0.8,3.6,NaN, NaN,21.8,330.4,338.1,1105057400,1105057399,1,1.6,001399,001399,276.2,30.842668,-121.581491,0.25,NaN,NaN,16.442, NaN,NaN,NaN, NaN, NaN
20050107,002348,262806,30.842736,-121.581706,4.8,16.440,33.195,42.290,1452.03,0.0,0.595,16.180,16.148, NaN,24.259,   NaN,15.44,1015.23,70.62,15.44,29.2,260.5,0.4,3.2,118.7,172.2,0.8,3.5,NaN, NaN,21.7,319.3,274.5,1105057429,1105057429,1,0.4,001428,001429,272.1,30.842720,-121.581581,0.25,NaN,NaN,16.444, NaN,NaN,NaN, NaN, NaN
20050107,002419,262838,30.842783,-121.581801,4.7,16.441,33.193,42.289,1418.28,0.0,0.595,16.180,16.148, NaN,24.257,   NaN,15.50,1015.22,70.48,15.43,49.3,258.6,0.3,3.1,121.0,169.1,0.8,3.3,NaN, NaN,22.8,204.7,255.5,1105057460,1105057460,1,0.7,001460,001460,276.6,30.842758,-121.581681,0.25,NaN,NaN,16.445, NaN,NaN,NaN, NaN, NaN
20050107,002449,262867,30.842831,-121.581923,4.8,16.445,33.192,42.291,1313.57,0.0,0.576,16.180,16.149, NaN,24.256,   NaN,15.60,1015.23,70.65,15.48,53.3,260.5,0.3,2.8,125.6,172.8,0.9,3.0,NaN, NaN,22.0,347.9,304.5,1105057490,1105057489,1,0.9,001489,001489,285.2,30.842793,-121.581815,0.19,NaN,NaN,16.449, NaN,NaN,NaN, NaN, NaN
20050107,002520,262899,30.842901,-121.582028,4.9,16.447,33.188,42.289,1147.18,0.0,0.595,16.180,16.152, NaN,24.252,   NaN,15.64,1015.19,70.88,15.51,338.8,259.3,0.3,3.0,153.6,178.4,0.8,3.3,NaN, NaN,22.3,237.1,259.3,1105057520,1105057520,1,0.8,001519,001520,288.1,30.842851,-121.581918,0.23,NaN,NaN,16.451, NaN,NaN,NaN, NaN, NaN
20050107,002549,262927,30.843015,-121.582145,4.8,16.446,33.190,42.290,992.09,0.0,0.595,16.181,16.153, NaN,24.254,   NaN,15.60,1015.22,70.49,15.45,301.4,255.1,0.6,3.2,154.0,177.1,0.9,3.6,NaN, NaN,21.5,320.7,342.5,1105057550,1105057549,1,1.7,001549,001549,284.2,30.842958,-121.582030,0.29,NaN,NaN,16.450, NaN,NaN,NaN, NaN, NaN
20050107,002619,262957,30.843073,-121.582270,4.8,16.457,33.181,42.291,868.43,0.0,0.595,16.181,16.153, NaN,24.245,   NaN,15.58,1015.21,70.83,15.45,300.8,261.2,0.8,3.0,145.4,179.6,1.2,3.2,NaN, NaN,21.5,358.7,338.9,1105057580,1105057580,1,1.2,001580,001580,278.9,30.843038,-121.582153,0.26,NaN,NaN,16.461, NaN,NaN,NaN, NaN, NaN
20050107,002649,262988,30.843125,-121.582348,4.8,16.448,33.186,42.288,810.44,0.0,0.595,16.183,16.154, NaN,24.251,   NaN,15.40,1015.19,70.36,15.38,310.7,268.1,0.8,3.6,184.2,183.4,1.1,3.9,NaN, NaN,20.8,345.3,262.6,1105057610,1105057610,1,0.6,001609,001610,275.9,30.843103,-121.582240,0.35,NaN,NaN,16.452, NaN,NaN,NaN, NaN, NaN
20050107,002719,263018,30.843186,-121.582403,4.7,16.448,33.189,42.291,983.43,0.0,0.595,16.183,16.153, NaN,24.253,   NaN,15.29,1015.21,70.03,15.29,312.8,271.4,0.8,3.8,184.1,184.6,1.0,4.1,NaN, NaN,19.8,321.4,307.4,1105057639,1105057639,1,0.7,001639,001639,272.7,30.843166,-121.582298,0.27,NaN,NaN,16.452, NaN,NaN,NaN, NaN, NaN
20050107,002749,263047,30.843241,-121.582465,4.8,16.449,33.186,42.289,1059.68,0.0,0.614,16.186,16.156, NaN,24.251,   NaN,15.25,1015.15,70.13,15.30,297.1,274.7,1.4,4.0,188.0,186.3,1.7,4.3,NaN, NaN,21.4,349.8,323.4,1105057670,1105057670,1,0.8,001669,001670,275.6,30.843210,-121.582360,0.23,NaN,NaN,16.453, NaN,NaN,NaN, NaN, NaN
20050107,002819,263077,30.843288,-121.582565,4.8,16.451,33.185,42.289,967.00,0.0,0.595,16.186,16.156, NaN,24.249,   NaN,15.16,1015.17,69.68,15.27,303.4,268.9,1.0,4.2,169.1,182.8,1.3,4.5,NaN, NaN,20.5,334.2,304.7,1105057700,1105057699,1,1.0,001699,001699,284.2,30.843240,-121.582466,0.20,NaN,NaN,16.455, NaN,NaN,NaN, NaN, NaN
20050107,002850,263109,30.843365,-121.582701,4.8,16.450,33.186,42.290,1034.89,0.0,0.595,16.187,16.159, NaN,24.250,   NaN,15.14,1015.17,69.50,15.20,124.1,262.9,0.3,3.9,137.4,181.1,0.7,4.2,NaN, NaN,21.6,239.8,265.9,1105057730,1105057730,1,0.9,001730,001730,285.6,30.843316,-121.582596,0.19,NaN,NaN,16.454, NaN,NaN,NaN, NaN, NaN
20050107,002919,263138,30.843466,-121.582841,4.7,16.451,33.185,42.290,1180.22,0.0,0.595,16.187,16.158, NaN,24.249,   NaN,15.19,1015.21,69.28,15.24,299.6,265.0,0.7,3.8,146.6,183.6,1.0,4.1,NaN, NaN,21.6,343.1,292.4,1105057760,1105057760,1,1.1,001760,001760,283.4,30.843420,-121.582750,0.24,NaN,NaN,16.455, NaN,NaN,NaN, NaN, NaN
20050107,002950,263168,30.843566,-121.582988,4.8,16.451,33.189,42.295,982.36,0.0,0.614,16.187,16.158, NaN,24.252,   NaN,15.21,1015.22,68.96,15.26,323.2,268.3,1.1,3.8,180.4,185.0,1.1,4.1,NaN, NaN,21.7,247.8,330.6,1105057791,1105057790,1,1.7,001790,001790,281.6,30.843518,-121.582901,0.17,NaN,NaN,16.455, NaN,NaN,NaN, NaN, NaN
20050107,003020,263198,30.843631,-121.583150,4.7,16.452,33.186,42.291,935.56,0.0,0.633,16.185,16.155, NaN,24.250,   NaN,15.23,1015.20,69.12,15.24,318.4,266.3,1.0,3.8,159.7,181.3,1.1,4.1,NaN, NaN,20.6,359.8,340.9,1105057821,1105057821,1,1.9,001820,001821,282.1,30.843600,-121.583061,0.16,NaN,NaN,16.456, NaN,NaN,NaN, NaN, NaN
20050107,003050,263229,30.843718,-121.583306,4.8,16.452,33.187,42.292,1166.33,0.0,0.595,16.186,16.155, NaN,24.250,   NaN,15.27,1015.22,69.44,15.34,352.9,265.6,0.6,3.8,124.5,180.2,0.9,4.0,NaN, NaN,19.9,269.4,304.7,1105057851,1105057851,1,1.3,001850,001851,281.7,30.843680,-121.583220,0.25,NaN,NaN,16.456, NaN,NaN,NaN, NaN, NaN
20050107,003119,263257,30.843788,-121.583458,4.9,16.447,33.192,42.293,1161.24,0.0,0.614,16.183,16.152, NaN,24.255,   NaN,15.31,1015.19,69.71,15.39,329.1,269.2,1.1,4.0,157.4,183.5,1.1,4.2,NaN, NaN,20.8,344.3,324.7,1105057880,1105057880,1,1.5,001879,001880,280.6,30.843758,-121.583370,0.17,NaN,NaN,16.451, NaN,NaN,NaN, NaN, NaN
20050107,003150,263288,30.843875,-121.583675,4.9,16.450,33.188,42.292,1068.59,0.0,0.633,16.184,16.154, NaN,24.251,   NaN,15.22,1015.25,69.03,15.29,306.1,271.6,1.7,4.0,194.3,183.0,1.6,4.2,NaN, NaN,20.2,282.4,285.8,1105057911,1105057911,1,1.9,001910,001911,278.6,30.843850,-121.583588,0.29,NaN,NaN,16.454, NaN,NaN,NaN, NaN, NaN
20050107,003220,263318,30.843971,-121.584040,4.8,16.448,33.191,42.295,1151.06,0.0,0.614,16.184,16.153, NaN,24.255,   NaN,15.21,1015.25,69.45,15.31,299.1,279.2,2.1,3.8,185.4,182.9,2.0,3.9,NaN, NaN,20.1,306.5,287.8,1105057940,1105057940,1,2.8,001940,001940,279.2,30.843943,-121.583926,0.31,NaN,NaN,16.452, NaN,NaN,NaN, NaN, NaN
20050107,003250,263348,30.844081,-121.584498,4.8,16.456,33.184,42.293,1226.82,0.0,0.614,16.187,16.157, NaN,24.247,   NaN,15.14,1015.23,69.22,15.29,297.0,286.4,2.9,4.1,187.8,186.2,2.7,4.0,NaN, NaN,19.8,287.7,289.7,1105057971,1105057971,1,3.4,001970,001971,279.7,30.844050,-121.584388,0.24,NaN,NaN,16.460, NaN,NaN,NaN, NaN, NaN
20050107,003319,263377,30.844195,-121.585018,4.8,16.449,33.190,42.293,1195.50,0.0,0.614,16.184,16.153, NaN,24.253,   NaN,15.11,1015.22,69.09,15.26,292.6,284.9,3.1,4.5,182.1,184.1,3.1,4.5,NaN, NaN,19.9,280.6,285.4,1105058000,1105058000,1,3.5,002000,002000,279.9,30.844161,-121.584881,0.23,NaN,NaN,16.453, NaN,NaN,NaN, NaN, NaN
20050107,003350,263409,30.844325,-121.585560,4.8,16.454,33.186,42.293,1140.61,0.0,0.595,16.183,16.152, NaN,24.249,   NaN,15.08,1015.19,69.09,15.27,290.5,284.3,3.3,4.7,179.1,182.4,3.3,4.7,NaN, NaN,20.6,278.5,283.2,1105058031,1105058031,1,3.6,002030,002031,279.6,30.844290,-121.585445,0.21,NaN,NaN,16.458, NaN,NaN,NaN, NaN, NaN
20050107,003420,263439,30.844445,-121.586143,4.9,16.448,33.190,42.292,1028.11,0.0,0.595,16.183,16.152, NaN,24.253,   NaN,15.04,1015.21,68.84,15.20,292.3,285.2,3.3,4.6,179.6,182.2,3.3,4.6,NaN, NaN,20.7,294.9,286.0,1105058061,1105058061,1,3.6,002061,002061,280.2,30.844401,-121.586001,0.27,NaN,NaN,16.452, NaN,NaN,NaN, NaN, NaN
20050107,003449,263468,30.844580,-121.586696,4.8,16.445,33.192,42.291,993.14,0.0,0.595,16.184,16.152, NaN,24.256,   NaN,15.02,1015.19,69.07,15.19,293.5,285.8,3.1,4.5,177.7,181.7,3.1,4.5,NaN, NaN,19.8,301.4,295.4,1105058090,1105058090,1,3.6,002090,002090,280.2,30.844535,-121.586560,0.25,NaN,NaN,16.449, NaN,NaN,NaN, NaN, NaN
20050107,003520,263498,30.844706,-121.587275,4.8,16.448,33.190,42.292,838.34,0.0,0.595,16.185,16.154, NaN,24.254,   NaN,15.04,1015.17,69.92,15.28,293.7,287.2,3.2,4.6,178.7,183.5,3.2,4.6,NaN, NaN,19.9,285.0,294.5,1105058120,1105058120,1,4.0,002120,002120,279.6,30.844668,-121.587135,0.29,NaN,NaN,16.452, NaN,NaN,NaN, NaN, NaN
20050107,003550,263528,30.844823,-121.587818,4.7,16.449,33.188,42.291,598.96,0.0,0.633,16.183,16.153, NaN,24.252,   NaN,14.92,1015.16,70.06,15.23,292.8,287.7,3.7,5.0,181.4,184.5,3.6,5.0,NaN, NaN,19.9,280.8,287.7,1105058151,1105058151,1,3.1,002150,002151,266.9,30.844811,-121.587690,0.39,NaN,NaN,16.453, NaN,NaN,NaN, NaN, NaN
20050107,003621,263559,30.844773,-121.588220,4.8,16.450,33.186,42.290,577.70,0.0,0.595,16.182,16.153, NaN,24.250,   NaN,14.78,1015.18,70.24,15.11,301.7,297.0,4.2,5.0,182.8,182.5,4.0,4.9,NaN, NaN,18.9,252.9,254.7,1105058181,1105058181,1,2.4,002180,002181,234.9,30.844841,-121.588108,0.65,NaN,NaN,16.454, NaN,NaN,NaN, NaN, NaN